sat.trackr.live / text

‹ back to catalog

STARLINK-3618

NORAD 51998 · 2022-025AU

PAYLOAD ACTIVE UNKNOWN

§ Identity

Operator
Country
US
Launch date
2022-03-09
Launch site
AFETR
Launch vehicle
Mass (kg)
RCS (m²)

Purposes: comms

External: N2YO · Heavens-Above · Gunter

§ Orbital elements

Epoch: 2026-09-19T06:42:34.803936Z

Period
93.85 min
Inclination
53.1602°
Eccentricity
0.0001386
Mean motion
15.34392180 rev/d
Perigee alt
461.8 km
Apogee alt
463.7 km
Semi-major
6,840.9 km
B*
-1.5475e-5
RAAN
215.6724°
Arg perigee
81.1560°
Mean anomaly
278.9599°
Rev number
25,034

§ Raw data

STARLINK-36181 51998U 22025AU  26262.27956949 -.00000899  00000+0 -15475-4 0  99952 51998  53.1602 215.6724 0001386  81.1560 278.9599 15.34392180250346

JSON: /api/v1/satellites/51998 · /tle

For live sub-satellite position, see the globe view (requires WebGL).

§ Visibility from observer

Set your observer location to see the next 7 days of passes ≥ 10°. The values pass through the URL so the page stays shareable.

No JS? Fill the form by hand. The geolocation button needs JavaScript.